Theta_e
294 295 296 296 295 295 294 293 292 290 291 289 286 287 291 291 288 286 293 294 290 293 294 295 294 294 294 295 296 295 295 293 292 291 291 291 291 292 291 291 292 291 291 291 291 290 289 288 287 287 287 287 287 287 287 286 286 285 285 284 284 283 283 282 283 283 284 284 284 284 283 283 283 282 281 280 279 279 279 279 279 278 278 277 277 277 277
292 293 294 294 291 293 294 294 294 293 291 290 290 290 292 291 290 292 294 293 293 296 295 296 296 297 296 297 297 295 293 292 291 291 291 290 290 290 290 291 291 292 292 292 291 291 289 288 287 287 287 287 287 286 286 286 285 285 285 284 283 283 283 283 284 284 284 284 284 283 283 282 282 281 280 279 279 278 278 278 277 277 277 276 276 276 276
288 291 293 293 292 292 290 293 294 294 292 291 291 290 291 291 291 292 293 292 291 298 299 297 299 298 296 294 293 293 293 292 291 291 291 291 290 290 291 291 291 291 291 291 291 290 289 288 287 287 287 287 287 286 286 286 285 285 285 284 284 284 283 284 284 284 284 283 283 283 283 282 282 280 279 279 278 278 277 277 276 276 276 275 275 275 275
286 289 290 291 291 289 288 288 290 291 291 288 289 288 291 289 288 290 290 288 289 295 297 294 292 292 293 292 292 291 292 292 291 290 291 291 291 291 291 291 291 291 291 291 290 290 290 289 288 287 287 287 287 286 286 286 285 285 285 284 284 284 284 284 285 284 284 284 283 283 282 282 281 280 279 278 278 277 276 276 275 275 275 275 275 275 275
285 289 290 288 286 285 283 285 288 291 292 293 293 293 293 292 293 289 287 288 294 293 293 291 288 287 289 290 289 290 291 291 291 291 291 291 292 292 291 290 290 290 290 290 290 290 290 290 289 289 289 287 286 286 286 286 286 286 285 285 284 284 284 284 284 284 284 284 283 283 282 282 280 279 278 277 276 276 275 276 275 274 274 274 274 274 274
285 286 286 286 283 277 280 290 293 294 291 292 289 289 291 292 293 291 292 291 290 289 289 290 288 287 288 290 292 293 292 291 291 291 292 293 293 292 292 291 291 291 291 291 291 291 291 291 291 291 289 288 287 287 287 287 286 286 285 284 284 284 284 284 284 284 284 283 283 283 282 281 280 278 277 276 276 276 275 275 274 274 274 273 274 273 273
284 284 285 282 277 279 288 284 286 291 296 294 291 292 292 292 292 291 289 288 290 290 290 291 291 290 291 292 292 293 294 293 292 291 292 293 293 292 292 292 291 292 292 291 291 290 290 291 291 290 289 289 289 288 287 286 286 285 285 284 284 284 284 284 284 284 284 284 283 283 282 280 279 277 277 276 276 275 274 274 273 273 273 272 272 272 272
283 280 283 276 279 285 283 285 285 290 294 294 292 290 293 293 292 291 290 291 290 290 290 289 289 290 288 289 290 292 293 293 293 292 292 293 292 291 292 292 292 292 292 291 291 291 291 291 290 290 290 290 289 287 287 286 286 285 285 284 284 284 284 284 284 284 284 283 283 282 281 279 278 277 276 276 275 275 274 274 274 274 273 273 271 271 270
280 282 281 283 288 286 285 282 285 290 290 291 289 286 289 294 294 291 290 290 289 288 286 285 286 288 289 288 290 290 290 290 291 293 292 292 291 292 293 293 292 293 293 292 292 291 290 289 289 289 289 289 288 287 286 286 286 285 285 284 284 284 284 284 284 284 284 283 283 282 281 279 277 277 276 275 275 274 272 273 273 272 271 271 271 270 269
286 283 280 281 281 278 285 285 288 290 288 293 295 291 288 291 290 290 290 289 288 286 284 284 284 289 288 286 289 290 289 289 289 289 291 291 292 292 291 291 291 291 291 291 290 289 288 288 288 288 288 287 287 286 286 286 285 285 284 284 285 284 284 285 285 284 284 283 282 281 280 278 277 277 276 275 274 273 272 272 272 271 271 270 269 269 268
283 282 280 280 278 282 286 285 285 286 288 293 292 289 285 288 288 290 290 289 288 286 284 283 285 287 286 287 290 290 288 288 288 288 289 289 290 290 290 290 289 288 288 288 287 287 287 286 286 287 286 286 286 285 285 285 285 284 284 284 284 284 285 285 285 284 284 283 282 281 279 279 277 276 275 274 273 272 272 272 271 271 270 269 268 268 267
283 282 281 279 285 284 286 286 284 287 287 292 290 278 278 287 286 288 289 289 287 285 285 284 286 287 286 289 291 287 289 288 289 289 288 288 288 288 288 289 289 287 286 285 285 285 285 286 286 285 285 285 285 285 285 285 284 284 284 285 285 285 285 285 285 284 283 282 281 280 279 278 277 276 275 273 271 271 270 271 270 270 268 268 267 267 267
283 283 281 284 283 286 283 283 284 285 286 288 281 277 284 284 285 286 289 288 287 286 285 286 286 289 288 287 287 287 287 287 287 287 289 289 289 288 287 286 286 286 286 286 286 286 286 286 285 285 285 284 284 284 284 283 283 284 285 286 285 285 285 284 284 283 282 281 280 279 279 278 276 274 273 272 270 269 268 269 269 268 267 267 266 266 266
281 283 280 281 285 287 284 283 284 284 286 279 278 285 284 284 284 286 289 288 287 286 286 287 289 288 284 285 286 285 286 287 286 286 286 285 284 285 285 285 285 286 286 287 287 287 287 285 284 284 284 283 284 284 283 282 283 285 285 285 285 285 284 283 282 281 279 279 279 278 276 275 273 272 271 270 269 268 269 268 266 266 265 265 265 265 266
281 281 280 279 276 284 283 284 284 284 282 284 284 282 283 284 285 286 287 288 287 287 286 288 287 283 284 284 285 286 286 286 285 285 285 284 284 283 283 283 285 285 285 285 286 286 285 284 283 283 283 282 283 283 282 283 284 285 285 284 283 283 282 280 279 278 277 276 275 274 273 273 271 270 268 267 267 267 267 266 265 264 264 264 265 265 265
279 280 277 279 285 284 285 286 283 284 285 285 284 285 283 284 285 286 287 287 287 288 288 286 285 285 284 284 284 284 285 285 285 285 285 285 285 284 284 284 284 284 285 285 285 285 284 283 282 283 282 282 282 282 282 285 284 283 282 282 280 280 278 278 276 275 273 272 272 270 270 270 270 269 267 266 265 265 265 265 265 264 265 265 265 265 265
284 282 284 282 282 285 285 284 283 285 285 285 285 286 286 284 284 286 287 287 287 287 287 286 285 284 284 283 284 284 284 284 284 284 284 284 284 284 283 283 284 283 284 284 284 284 283 282 282 281 282 282 281 281 283 284 283 281 279 278 277 276 276 275 274 272 270 269 268 268 268 268 268 268 266 265 265 265 264 265 266 267 267 267 266 266 267
283 282 283 283 282 284 284 283 284 284 282 283 285 286 285 286 287 286 287 287 286 286 286 285 285 284 284 283 283 284 284 283 283 284 284 283 283 283 283 283 282 282 283 283 283 283 283 282 280 280 281 282 281 282 284 283 281 279 276 275 274 275 274 273 271 269 268 267 266 266 266 268 268 269 266 265 266 266 265 265 266 266 267 268 267 267 266
284 280 281 281 282 283 282 282 283 282 283 284 285 287 287 287 286 286 287 286 286 285 285 285 285 284 284 283 283 283 283 283 283 283 283 283 282 282 282 282 282 281 280 281 281 281 282 282 280 279 279 280 282 283 281 281 279 276 274 274 274 273 272 271 269 267 267 267 266 265 265 266 267 268 267 266 267 267 266 266 266 266 267 267 267 266 266
282 279 279 279 279 281 283 284 283 283 283 282 284 286 285 285 285 285 285 285 284 285 284 285 284 284 284 284 283 283 283 283 283 282 282 283 282 282 283 282 281 280 280 280 280 280 281 283 282 279 278 278 279 280 278 277 275 273 273 273 274 273 271 270 268 266 267 266 265 265 264 265 266 267 267 267 267 267 267 267 267 267 266 266 266 266 266
279 278 279 279 280 281 282 282 283 285 285 284 284 283 283 283 283 283 283 283 284 284 284 285 284 283 283 283 284 283 283 283 283 282 282 282 283 283 282 281 280 280 280 279 280 280 281 282 282 280 278 278 278 278 276 272 272 272 273 272 272 272 270 269 268 266 267 267 266 266 264 264 265 267 266 266 267 267 267 268 269 268 268 268 267 267 267
278 279 279 280 279 279 281 282 283 284 284 284 284 283 282 282 282 282 282 281 282 282 283 284 284 284 283 283 283 283 283 283 283 283 283 282 282 283 283 282 280 280 280 280 279 280 281 281 280 280 279 278 276 276 274 271 270 271 272 271 270 271 269 268 268 266 267 267 266 267 265 264 264 264 266 268 267 266 265 268 269 270 270 267 267 267 266
280 283 282 283 284 283 284 284 284 284 284 284 283 283 283 283 283 283 283 281 280 280 281 282 283 283 283 283 283 282 282 283 283 283 283 282 282 282 282 280 278 278 278 278 278 278 279 279 279 278 277 276 274 273 272 271 270 270 270 272 271 271 269 269 268 267 267 267 266 267 266 265 265 264 264 266 269 270 269 268 269 270 271 271 271 270 267
281 282 283 283 282 282 281 284 284 284 285 284 284 284 285 284 284 283 283 283 282 281 281 280 282 283 283 284 283 282 282 282 282 282 282 283 283 282 280 280 279 278 277 277 277 277 278 277 276 275 274 273 272 271 270 270 269 270 270 272 272 272 271 268 268 267 267 266 266 266 266 266 265 265 265 265 265 269 271 271 270 271 271 272 272 273 273
282 282 283 283 281 281 281 282 282 283 284 284 284 284 284 284 284 283 282 283 284 283 282 281 281 282 282 282 283 282 282 282 282 282 282 281 281 280 280 278 278 278 278 278 278 276 276 276 274 273 272 271 269 267 267 267 267 268 268 269 271 270 269 269 267 266 266 266 265 265 264 264 264 265 265 266 266 266 268 271 272 272 272 272 273 273 273
282 281 282 282 281 280 281 281 281 280 282 283 283 283 284 284 284 282 283 283 283 284 283 283 282 281 281 281 281 281 281 282 282 281 281 279 279 278 277 277 277 278 277 277 277 276 275 273 272 271 270 267 265 264 264 265 265 266 267 267 267 269 269 267 266 265 265 265 265 265 265 265 264 264 264 265 266 267 266 265 266 269 271 271 272 272 272
282 282 282 281 281 280 281 281 282 282 281 283 283 283 283 283 282 282 282 282 282 282 282 283 282 281 280 280 280 280 281 280 279 279 279 279 278 278 277 276 277 276 275 274 274 272 270 269 268 267 265 261 261 261 263 263 263 264 264 265 265 265 264 265 266 266 265 266 265 265 265 264 264 263 263 264 264 263 263 264 264 264 264 266 269 270 268
281 282 284 281 280 281 281 282 282 282 282 281 281 282 280 280 279 278 277 277 278 278 279 279 279 278 278 279 279 278 278 277 277 278 278 278 278 275 272 272 272 272 271 270 268 266 265 265 264 264 260 259 260 260 261 261 261 262 263 263 264 265 263 263 264 265 265 264 265 264 263 263 263 263 263 262 262 261 261 261 261 262 262 264 264 266 268
281 281 283 283 283 282 282 282 282 281 280 280 280 280 278 277 277 277 278 279 280 279 278 277 277 277 278 278 277 277 277 276 276 277 277 276 272 270 269 268 267 266 266 265 264 263 263 262 262 261 259 258 258 259 259 260 261 262 262 262 264 264 264 263 262 264 263 263 263 263 264 262 262 262 261 261 261 261 261 261 260 261 261 262 261 261 263
281 281 281 281 282 282 282 281 281 280 281 279 278 278 278 279 278 278 279 279 279 279 280 280 277 276 275 275 275 276 276 276 277 275 272 268 265 265 265 265 265 265 263 263 261 260 261 261 261 260 258 258 258 258 259 260 261 261 260 261 262 263 263 262 262 262 262 262 261 262 262 261 261 261 260 260 260 260 259 259 260 259 259 260 261 260 260
280 280 280 280 280 280 280 281 281 280 280 278 279 278 276 277 278 279 280 280 279 278 278 277 277 275 273 274 274 274 274 274 272 269 266 265 264 263 264 265 269 272 270 264 258 258 259 260 259 258 257 257 257 257 259 260 261 260 261 261 261 262 262 263 263 262 261 261 260 260 260 260 260 260 259 259 259 259 259 259 259 259 259 259 259 259 260
279 277 276 278 278 278 278 278 279 279 279 277 275 276 277 276 275 276 278 279 279 279 278 277 275 276 276 274 272 271 270 268 264 263 262 262 261 259 259 260 260 258 257 258 259 259 259 258 257 256 256 256 256 257 259 260 262 262 262 261 261 261 261 262 262 262 261 260 260 260 259 259 259 259 259 259 259 258 259 259 258 258 258 258 258 259 260
275 274 275 276 274 273 274 276 277 277 278 276 277 279 279 279 278 278 279 278 277 277 276 276 276 275 273 272 270 268 265 263 261 260 260 258 257 257 257 258 257 257 257 257 258 258 258 257 256 256 256 256 257 258 259 260 262 262 261 261 261 261 260 262 262 262 261 259 259 259 259 259 259 259 259 259 259 259 259 258 258 258 258 258 258 259 260
279 279 280 280 279 278 277 278 278 278 278 278 278 278 278 277 277 276 276 276 275 274 275 274 272 268 268 269 267 264 264 265 267 264 259 257 256 256 256 257 257 256 257 258 259 259 258 258 258 257 257 257 257 257 258 259 260 260 260 260 260 260 259 260 260 260 260 260 260 259 259 259 259 259 258 258 258 258 258 257 257 257 257 257 258 258 259
282 282 281 281 281 280 279 280 279 279 278 276 276 276 276 275 275 275 273 274 274 271 267 264 264 264 265 265 265 264 265 267 267 263 258 257 256 256 256 256 256 256 255 256 256 256 256 256 257 257 257 257 257 258 258 259 259 259 259 259 259 259 259 259 259 259 259 260 260 259 259 258 258 258 258 258 257 257 257 257 257 257 256 256 257 258 258
273 277 277 274 268 267 267 267 267 270 274 275 273 272 271 268 268 268 268 267 263 264 264 263 262 263 263 263 264 263 264 261 259 258 257 256 256 258 257 257 256 256 255 254 255 255 256 256 257 258 259 258 258 257 257 257 257 257 257 258 258 258 257 257 257 257 258 258 258 258 258 258 257 257 257 256 256 256 256 256 256 256 256 256 257 257 257
263 270 269 265 262 261 259 257 257 260 262 262 261 261 261 259 259 257 258 259 260 259 259 261 262 262 259 258 258 258 258 259 259 257 257 257 258 257 257 257 258 258 258 256 255 255 256 256 256 257 258 258 257 255 255 256 256 256 256 256 256 256 256 256 256 256 256 256 256 256 256 256 256 256 256 256 256 256 256 256 256 256 256 256 257 257 257
258 257 259 259 257 256 254 254 254 255 256 256 254 254 254 255 255 256 256 257 257 259 259 259 258 256 256 256 254 253 253 254 255 255 256 256 257 256 257 259 260 261 260 257 255 255 255 255 255 256 257 258 257 256 255 255 255 256 256 256 256 256 256 256 256 256 256 256 256 256 255 255 255 255 256 256 255 255 255 255 255 255 255 255 256 256 256
261 259 257 256 255 255 254 254 254 254 255 255 254 253 254 254 255 255 255 255 255 257 256 255 256 256 255 254 253 251 250 252 253 254 254 254 255 256 254 253 252 253 254 255 256 255 255 255 255 255 255 253 254 254 254 255 255 256 256 256 255 256 256 256 256 256 255 256 255 255 254 254 254 254 254 255 255 255 255 254 254 254 254 255 255 255 255
259 258 256 256 255 255 254 253 252 253 253 254 254 253 254 255 256 255 255 255 256 256 256 257 257 256 254 252 252 251 249 248 251 252 252 253 253 253 253 253 252 252 253 254 255 254 253 254 254 255 255 255 254 255 255 254 255 256 255 255 255 255 255 255 255 255 255 255 254 254 254 254 254 254 254 254 254 254 254 254 254 253 253 254 254 254 255
258 258 257 256 255 254 254 253 252 251 251 251 252 253 254 255 255 254 253 254 255 255 256 256 256 254 254 253 250 249 248 248 247 248 251 255 255 258 258 255 253 252 251 253 253 253 254 254 254 255 255 257 256 255 255 254 255 256 256 255 255 255 255 255 255 255 255 255 254 254 254 254 254 254 254 254 253 253 254 253 254 254 254 254 254 254 254
256 257 257 256 255 253 253 253 253 252 251 251 251 252 253 254 254 253 253 254 254 254 253 253 254 253 250 249 248 248 247 247 248 248 248 252 255 259 257 254 253 253 254 253 254 254 254 253 254 255 256 256 256 254 254 255 255 255 255 256 255 255 255 255 254 254 255 255 255 254 254 254 254 253 254 254 253 253 253 253 253 254 254 254 254 254 254
253 253 254 253 253 252 252 252 252 251 251 251 251 251 251 252 253 253 252 253 252 252 251 251 251 250 250 250 250 250 249 248 249 250 252 250 248 248 254 255 254 252 253 254 254 255 255 255 255 255 255 255 255 253 253 255 256 256 255 255 255 255 255 255 254 255 255 254 254 254 254 253 253 253 253 253 253 253 253 253 253 253 254 254 254 254 254
251 252 252 251 251 252 252 252 252 253 252 251 251 251 251 251 252 252 253 252 252 252 251 251 251 250 250 251 253 253 253 253 254 255 255 254 254 251 251 253 254 252 252 254 255 255 256 255 255 254 253 253 254 254 255 256 256 256 256 255 254 255 255 254 255 254 254 254 254 254 254 254 254 253 253 253 253 254 254 254 254 254 254 254 254 255 255
251 251 251 252 252 253 253 253 252 251 251 251 251 250 250 250 250 252 252 252 252 252 252 252 252 252 253 254 254 254 254 255 255 256 257 256 255 254 252 251 253 254 253 253 255 255 255 255 254 254 254 255 255 255 255 256 256 257 256 256 255 254 254 254 254 254 254 254 254 254 255 255 254 254 254 254 254 254 254 254 254 254 254 254 255 255 255
250 251 252 251 251 251 252 251 251 251 252 252 251 251 250 249 250 251 251 252 253 253 253 253 253 253 253 253 252 252 252 253 252 251 252 254 255 255 254 253 254 253 253 253 255 255 255 254 254 254 255 255 255 256 256 257 257 257 256 256 255 255 255 255 255 254 254 254 255 255 255 255 255 254 254 254 254 254 254 254 254 254 254 254 255 255 255
250 250 250 250 250 251 252 253 253 254 254 253 252 251 250 249 250 251 249 248 249 249 251 251 251 251 251 252 253 255 255 254 254 254 253 253 253 253 253 252 253 253 253 254 255 255 255 255 255 255 255 256 256 256 257 257 256 256 256 255 255 255 255 255 255 255 255 255 255 255 255 255 254 254 254 254 254 254 254 253 253 254 254 254 254 255 254
249 249 249 250 249 250 251 251 252 252 251 251 251 250 250 250 250 250 250 251 251 251 251 251 250 249 248 248 249 250 252 255 255 254 254 252 253 252 253 254 254 253 253 254 254 255 255 255 255 255 255 255 256 256 256 257 256 256 255 255 255 255 255 255 255 255 255 255 255 254 254 254 254 254 254 254 254 254 254 254 254 254 254 254 254 255 254
248 248 248 249 250 250 251 252 252 252 251 250 250 251 250 251 252 252 252 252 252 253 253 252 251 251 250 249 249 252 251 250 253 254 254 254 254 255 255 254 253 253 254 255 254 254 255 254 255 255 255 255 256 256 256 256 256 256 255 255 255 256 255 255 255 255 255 255 255 255 255 254 254 254 254 254 254 254 254 254 254 254 253 254 254 253 253
250 251 252 253 252 252 253 254 254 252 252 252 252 253 252 254 255 254 254 253 253 254 254 254 254 254 254 253 254 252 250 249 252 253 253 253 252 252 254 253 253 254 254 254 253 255 255 255 254 255 255 255 256 256 256 256 255 255 255 255 255 255 255 255 255 255 254 254 254 254 254 254 254 254 254 254 254 254 253 253 253 253 253 252 252 252 252
252 252 251 251 250 249 248 250 252 253 253 253 252 253 254 255 254 254 254 254 254 254 254 254 254 254 254 254 254 254 252 251 251 252 254 255 254 254 254 254 255 255 255 255 255 255 255 255 255 254 254 255 255 255 255 255 255 255 255 255 254 255 254 255 254 254 254 254 254 254 254 254 254 253 253 253 253 253 253 252 252 252 252 252 252 252 252
249 250 250 250 250 250 251 251 251 252 253 253 254 254 254 254 254 254 253 253 254 254 254 254 254 254 253 253 254 254 254 253 254 255 255 254 255 255 255 255 255 255 255 254 255 254 254 254 254 254 253 253 254 254 254 254 254 254 254 254 254 254 254 254 254 253 253 253 253 253 253 253 253 253 252 252 252 252 252 252 252 252 252 252 252 252 252
Wind_Speed
23 18 16 7 9 12 11 16 17 17 20 17 21 25 23 11 14 19 6 15 16 14 16 14 12 12 11 12 11 8 8 8 8 9 10 11 11 11 12 13 13 13 13 13 13 12 12 12 13 13 12 12 11 11 11 11 11 11 10 10 10 10 9 9 10 10 9 9 8 7 7 7 7 6 6 6 6 5 5 5 4 4 4 4 3 3 3
18 19 17 8 7 10 11 13 16 17 21 25 28 22 21 24 20 24 10 11 17 12 15 15 14 11 11 7 5 7 8 9 9 9 9 10 10 11 13 13 13 13 12 10 11 11 11 13 14 13 12 13 13 12 12 11 11 10 10 11 11 10 11 11 10 9 9 8 8 7 7 7 7 6 6 6 6 6 5 5 4 4 4 4 4 4 3
16 19 16 13 14 10 14 14 12 17 22 24 23 23 24 22 25 23 15 10 12 8 9 12 7 5 6 6 6 8 7 8 9 9 9 9 10 11 11 11 11 11 11 10 10 11 12 13 14 13 12 11 11 11 11 11 12 11 11 11 11 12 12 11 10 9 9 9 8 8 7 7 5 5 7 5 4 4 4 5 5 4 4 5 4 4 4
15 16 12 17 13 9 12 16 20 23 21 17 18 20 20 18 23 25 15 12 13 8 7 5 6 7 9 9 8 6 5 8 7 8 8 9 9 10 10 10 10 10 11 12 12 12 12 12 13 12 11 11 11 12 12 12 11 11 11 12 12 13 12 11 10 10 9 9 9 8 7 7 6 5 4 5 5 5 4 4 4 4 5 5 5 5 4
16 17 6 11 3 3 11 18 30 26 14 14 17 20 21 24 22 14 15 21 12 8 10 9 2 5 7 6 6 5 4 6 8 9 9 9 8 10 9 10 11 11 11 12 12 11 11 12 13 14 13 11 12 13 13 13 10 12 13 12 13 12 12 11 10 10 10 10 8 8 7 6 5 5 4 5 5 5 5 4 4 4 6 5 5 5 5
12 1 8 5 5 13 17 12 5 13 19 19 18 21 25 20 16 16 12 6 5 9 9 13 11 8 8 11 11 11 12 10 8 8 8 8 8 7 7 8 9 9 9 8 9 11 11 12 12 11 11 11 10 11 11 11 12 12 12 12 12 12 11 11 11 11 11 9 9 8 8 7 5 5 5 6 5 4 4 4 4 4 4 4 4 5 5
8 5 8 6 15 19 5 5 6 4 17 18 21 20 17 18 15 11 8 5 8 12 12 12 13 13 9 6 8 8 7 10 10 11 9 7 7 8 8 8 8 8 9 8 9 10 10 10 9 10 10 10 9 10 11 11 10 11 11 12 11 12 12 12 11 9 11 10 10 8 8 8 7 7 6 5 6 5 5 5 5 5 5 5 4 4 4
3 4 10 8 14 2 3 2 3 5 1 13 13 16 20 19 18 17 16 14 4 5 5 3 2 5 5 4 1 3 4 6 8 8 8 8 7 8 7 8 8 8 9 10 10 9 7 8 9 10 10 9 9 9 9 9 9 10 11 11 12 11 12 11 12 12 11 11 11 9 9 9 10 9 7 8 7 5 5 4 4 4 3 4 4 5 4
9 7 12 14 5 7 3 0 3 9 10 11 14 13 18 17 14 16 14 13 7 7 5 5 5 6 4 2 5 5 6 4 3 5 5 6 6 6 5 5 6 6 6 6 6 7 7 8 8 8 8 8 8 8 9 8 10 10 9 10 12 12 10 12 13 12 12 12 12 11 11 11 11 11 9 8 6 4 4 4 5 5 4 4 4 4 5
11 12 10 5 7 14 10 1 4 3 5 4 12 11 6 3 6 8 10 11 7 7 5 6 6 4 3 4 7 9 8 7 5 2 3 4 4 5 6 5 5 5 5 5 6 7 7 7 7 7 8 8 8 8 9 8 9 9 9 11 11 12 13 11 12 13 12 12 12 11 11 12 13 9 5 3 4 4 5 6 5 5 4 3 4 4 5
7 8 10 10 9 6 4 2 1 3 1 5 7 2 8 0 3 8 10 8 8 11 10 6 7 5 6 6 4 7 11 9 8 8 5 6 5 5 6 6 7 6 6 7 7 7 8 8 8 8 8 9 9 8 8 8 9 7 10 11 12 13 13 12 11 12 11 11 11 11 12 13 11 11 10 7 4 4 3 3 3 4 4 3 3 3 3
8 10 9 10 3 3 2 3 2 2 2 3 8 2 6 4 5 2 7 8 8 8 9 10 7 8 7 8 2 6 9 10 9 9 9 7 6 5 5 5 6 7 7 8 6 7 8 8 8 9 9 9 7 8 9 8 8 9 12 13 12 10 9 10 10 9 10 10 10 11 12 10 9 9 6 5 6 5 3 3 3 3 3 3 4 3 3
11 10 7 2 3 1 2 1 3 1 1 2 9 9 2 2 1 1 3 4 9 10 10 9 7 10 4 3 5 5 7 8 6 5 6 6 5 6 6 6 6 6 5 6 7 7 5 7 8 8 8 7 7 7 8 9 10 12 11 9 9 9 9 8 8 9 8 9 11 10 9 9 8 7 5 6 6 6 5 3 3 3 4 3 2 3 3
9 10 6 4 1 1 4 1 3 1 4 5 7 1 1 4 4 2 3 8 9 11 13 9 9 5 6 5 4 5 5 6 6 6 7 7 7 6 6 6 5 5 5 4 4 4 5 6 7 7 7 8 8 9 7 9 12 10 7 9 9 8 7 7 7 7 8 8 8 8 6 7 8 8 5 5 6 6 4 4 5 3 3 2 3 3 3
1 2 5 2 7 2 7 7 4 3 4 2 5 4 2 1 2 6 4 6 7 10 9 11 5 7 5 6 5 5 6 6 7 8 7 7 7 7 7 5 4 5 5 5 5 6 5 6 5 6 8 9 8 7 9 13 11 8 9 8 6 7 6 7 7 8 7 8 8 6 7 8 10 9 6 6 6 5 5 4 5 5 3 3 3 3 3
5 8 8 5 0 7 9 9 7 4 2 2 8 8 4 1 3 4 3 4 7 7 7 9 6 5 6 4 4 5 5 5 5 6 5 5 6 6 5 6 8 7 5 5 4 5 5 6 5 6 9 9 8 8 12 12 8 5 5 5 5 5 6 7 7 7 6 6 6 6 7 8 8 10 9 7 5 4 4 4 4 4 4 4 4 4 4
5 2 1 0 3 5 6 3 2 6 3 4 3 7 6 5 2 2 1 4 5 7 4 5 7 5 4 5 5 6 5 5 6 7 7 7 7 7 7 6 8 7 7 8 6 5 5 7 6 6 7 9 9 11 11 7 6 6 6 5 6 6 7 7 7 6 5 6 6 6 7 9 10 8 9 8 6 5 5 5 5 5 5 5 5 4 4
3 2 3 2 2 6 4 4 3 5 4 1 2 5 4 2 4 6 6 7 6 6 6 7 5 5 6 6 5 4 5 4 3 3 4 4 4 4 5 5 7 5 4 2 3 4 5 6 6 6 7 8 11 12 9 6 6 6 7 7 7 9 7 6 6 6 8 5 5 5 7 4 5 4 6 7 6 6 6 5 5 5 4 4 4 4 4
4 2 5 3 2 4 3 3 3 4 2 3 2 5 5 5 5 5 5 1 5 7 8 8 7 6 6 6 5 4 4 5 5 5 6 5 6 8 6 7 6 4 4 4 5 5 6 5 7 7 8 9 10 6 3 4 5 6 7 8 8 7 8 7 6 7 9 6 5 5 4 4 4 4 6 6 5 5 6 6 6 5 5 5 4 4 4
3 1 3 2 2 1 1 1 4 5 4 1 2 1 2 3 2 1 2 4 6 6 5 7 7 7 7 7 6 5 4 4 5 5 6 6 5 6 5 4 4 3 4 6 6 6 8 8 6 7 8 10 10 6 1 3 5 6 7 8 10 9 9 7 6 6 5 9 7 5 6 6 7 6 5 6 7 8 8 8 7 6 6 6 6 5 4
2 2 1 1 3 2 3 2 4 2 1 4 4 2 3 2 2 2 3 3 3 6 7 5 5 8 7 7 7 7 6 6 5 7 7 7 7 6 5 4 6 7 7 8 8 7 8 5 4 5 8 9 8 7 4 3 4 7 9 8 7 5 5 5 4 4 5 5 6 6 5 4 3 3 5 6 6 3 2 2 3 5 5 5 5 4 4
4 5 6 7 4 3 5 6 7 5 5 4 2 2 1 2 3 4 5 3 3 2 2 4 5 5 6 6 6 5 7 8 8 8 7 7 7 5 5 4 5 6 6 6 6 6 7 3 3 5 7 6 4 3 3 3 4 6 5 4 4 5 4 3 3 4 4 4 4 4 4 5 4 2 2 5 4 2 1 5 7 6 5 3 3 4 4
2 5 8 6 3 3 4 11 9 10 7 5 6 6 6 5 4 4 5 5 3 2 2 1 6 6 5 6 6 6 4 6 6 8 8 7 8 9 5 5 5 7 6 4 4 5 6 4 4 4 4 2 3 3 4 5 6 6 5 4 3 3 5 5 6 4 4 3 4 3 3 4 4 4 3 4 10 12 9 7 9 12 12 12 11 11 7
2 2 11 8 4 4 2 5 9 11 9 7 6 4 4 4 5 5 4 4 8 5 3 3 4 6 6 4 5 5 5 3 4 4 6 7 7 5 3 5 5 5 4 4 6 10 5 2 4 3 3 1 2 3 4 5 5 6 7 6 4 4 3 2 5 5 3 3 3 4 3 4 4 5 4 3 3 11 15 13 12 13 14 15 15 15 16
3 2 6 6 4 3 1 2 3 4 8 9 9 8 6 5 4 5 6 4 3 6 5 7 5 4 4 4 4 4 7 6 6 7 4 4 3 4 4 3 4 5 6 5 3 2 1 2 2 1 1 0 1 2 3 4 5 6 6 6 6 1 3 4 3 5 3 3 3 4 4 4 4 4 4 5 4 3 6 14 15 15 15 15 15 16 16
5 6 5 4 4 3 1 3 1 3 5 6 5 2 3 5 4 3 7 5 4 3 2 3 5 5 6 6 6 4 4 5 1 3 3 2 2 2 4 5 4 1 1 0 0 1 1 1 1 0 1 1 2 1 2 3 4 5 5 5 3 2 2 3 3 3 4 3 4 4 4 4 4 4 4 4 3 2 4 3 4 9 13 15 14 14 14
5 8 9 6 1 2 2 6 4 4 5 5 6 3 4 3 3 2 1 1 1 0 2 4 1 2 3 4 5 4 4 2 1 3 3 4 4 6 2 1 0 0 0 1 1 1 1 1 0 0 1 3 2 1 2 3 3 3 3 3 2 1 2 4 2 2 3 3 3 3 3 3 3 3 3 2 2 2 2 3 4 4 4 5 9 12 8
6 7 8 7 6 7 7 6 3 5 4 3 2 3 4 4 3 3 2 1 2 3 2 2 3 3 4 3 4 4 1 3 3 3 4 6 2 1 2 2 1 1 0 0 1 2 2 1 1 1 3 3 3 2 1 2 2 2 2 2 1 1 2 1 1 1 2 2 2 2 2 1 1 2 2 2 2 2 2 2 2 2 3 2 2 4 8
6 7 3 2 4 3 4 4 3 2 3 3 4 2 2 1 0 1 3 4 3 2 3 3 3 4 3 2 3 3 3 3 4 5 4 3 4 2 3 2 3 2 2 2 2 2 2 2 2 2 3 3 3 2 2 2 2 2 2 2 1 1 2 2 1 1 2 2 1 1 2 2 2 2 1 1 1 2 2 3 3 3 3 2 1 2 6
4 4 4 2 4 3 4 3 4 4 3 3 4 1 1 3 2 4 6 4 2 4 4 1 2 3 3 3 3 4 5 4 2 2 5 3 3 3 2 3 4 3 2 1 2 2 3 3 3 3 2 2 3 2 2 2 3 4 4 3 2 2 2 3 2 2 2 2 2 3 2 2 2 2 2 2 2 2 2 3 4 4 4 4 4 4 3
3 2 2 1 2 1 2 3 2 3 3 2 3 2 1 1 4 6 6 5 3 4 3 2 3 1 2 5 4 2 1 1 2 3 3 3 3 3 2 1 0 1 0 2 3 2 3 3 4 3 3 3 2 2 2 2 3 4 3 2 2 5 6 5 4 2 2 2 2 2 2 2 2 2 1 2 2 2 3 3 4 5 4 4 4 4 4
3 2 2 0 0 1 3 1 3 3 3 3 2 4 5 5 6 8 6 5 6 5 4 2 2 4 4 2 2 3 2 3 4 5 4 4 4 4 4 4 5 5 6 4 3 2 2 4 4 3 3 3 3 2 2 2 3 3 3 3 3 2 3 4 2 3 2 2 2 2 1 1 1 2 2 2 3 3 4 4 5 5 5 5 5 5 4
5 0 2 4 2 2 5 4 3 5 4 5 8 7 5 4 4 4 4 3 3 2 2 3 3 2 1 3 3 4 4 5 5 5 5 5 4 4 4 3 4 5 5 4 3 4 4 4 4 3 3 3 3 3 3 3 3 3 3 3 3 3 2 2 2 2 3 2 2 2 2 2 2 2 3 3 3 3 4 5 5 5 5 5 5 4 4
10 9 10 8 9 9 8 9 5 5 4 4 4 3 4 4 4 4 3 2 2 3 2 1 1 2 2 3 4 4 6 5 2 2 4 4 3 3 3 4 4 6 5 4 4 4 4 4 3 4 4 4 4 3 3 2 2 3 3 3 3 3 2 1 2 1 1 1 1 2 2 2 3 4 3 3 3 4 4 5 4 4 5 5 4 4 6
6 3 3 2 1 1 1 1 2 4 5 4 4 4 4 2 1 1 0 1 1 1 2 3 3 3 3 3 4 3 4 3 1 6 6 4 4 4 4 6 6 6 7 6 5 5 4 4 4 3 3 3 3 3 3 3 3 3 3 3 2 1 1 1 1 1 1 1 1 1 2 2 3 3 3 3 2 3 3 4 4 4 5 5 4 4 5
3 1 1 3 6 6 5 5 4 2 1 2 2 1 1 1 1 0 0 1 2 2 2 3 4 4 4 3 3 3 3 3 5 6 6 5 5 4 4 6 7 7 6 6 5 3 3 3 4 4 2 3 3 4 4 3 3 3 2 2 2 1 1 1 1 0 0 0 0 1 1 1 1 2 2 2 3 3 4 4 4 4 5 5 5 5 5
7 4 4 4 4 7 8 6 4 4 4 3 3 3 3 4 4 2 2 3 3 3 1 2 3 4 4 4 5 5 4 3 3 5 6 5 4 4 5 4 4 4 4 4 2 2 3 3 4 4 2 3 3 3 3 3 1 2 2 1 1 1 1 1 1 1 0 0 0 0 1 1 2 2 3 3 4 4 4 4 5 5 5 5 5 5 5
6 6 6 5 3 6 6 4 3 4 5 7 6 5 4 3 3 3 4 3 3 2 2 3 5 7 6 6 7 8 7 5 6 7 6 5 5 7 4 4 2 1 2 2 2 2 2 2 3 3 2 3 3 3 3 4 3 1 1 1 1 1 1 1 0 1 1 0 0 0 1 1 2 2 2 2 3 3 4 4 5 5 5 5 4 5 5
6 6 6 5 5 6 5 4 5 6 6 6 5 5 3 3 3 4 6 5 3 2 5 7 6 7 9 9 7 6 6 4 4 7 7 6 3 5 5 4 3 4 3 2 3 2 2 3 2 1 2 2 2 2 2 3 1 1 1 1 1 1 1 0 0 0 0 0 0 1 1 2 2 2 2 3 3 3 4 5 5 5 4 5 4 5 5
4 4 4 4 5 4 5 6 7 6 6 5 6 7 2 3 3 4 4 5 4 2 3 5 7 6 7 10 9 6 4 4 4 7 8 7 8 8 5 3 3 2 3 3 2 2 2 2 1 1 2 1 1 1 2 2 1 1 1 1 0 0 0 0 0 0 0 1 1 2 2 2 3 3 3 3 3 3 3 4 4 5 5 5 5 6 5
3 3 3 4 5 4 4 4 5 5 4 4 5 5 3 3 2 8 6 5 4 5 4 3 6 7 6 7 9 9 4 3 5 5 3 4 4 2 3 2 2 2 1 2 1 1 2 2 1 1 1 2 2 3 2 2 0 1 1 1 0 0 0 0 0 1 1 2 2 2 2 3 3 3 3 3 3 3 3 4 4 4 5 5 5 5 5
3 3 4 5 5 4 4 4 4 5 6 6 6 5 5 5 5 6 4 4 5 5 6 6 6 9 10 9 7 6 6 4 4 4 4 3 1 1 3 2 2 1 2 2 1 1 1 1 1 2 1 1 2 3 2 1 0 0 0 0 0 0 0 1 1 2 2 2 2 2 2 2 3 3 3 3 3 3 4 3 4 4 5 5 5 5 5
6 4 4 4 4 4 4 4 5 6 6 6 6 6 6 5 6 5 5 5 6 6 7 7 8 8 7 7 8 8 5 3 4 4 5 4 3 2 2 4 3 1 1 1 0 0 1 1 1 1 3 2 2 2 2 1 1 1 1 1 1 1 2 2 2 2 2 2 3 3 3 3 3 3 3 3 3 3 3 4 4 5 5 5 5 5 5
5 4 4 4 4 4 4 4 4 5 7 6 5 5 8 8 6 6 6 6 7 7 6 6 6 6 6 4 4 4 2 2 2 1 2 2 3 3 3 2 2 2 1 1 1 1 1 0 0 1 1 1 1 2 1 1 1 1 2 1 1 1 2 2 2 2 2 3 3 3 2 3 3 3 3 3 3 4 4 4 4 4 4 4 5 6 6
4 4 4 4 3 4 3 3 4 5 5 5 5 6 7 8 7 6 6 7 7 6 6 5 5 3 2 1 2 2 2 2 1 0 1 2 1 0 1 1 0 1 1 1 0 0 0 0 0 0 2 2 2 3 2 2 2 2 2 2 1 2 2 2 2 2 2 2 2 3 3 3 3 4 4 4 4 4 5 4 5 4 4 5 5 6 6
4 4 3 4 5 5 4 5 5 5 5 5 7 7 7 6 6 6 5 6 6 5 4 4 4 4 4 4 4 3 2 2 2 2 2 2 1 2 2 1 1 1 1 2 1 0 0 1 1 2 2 3 3 2 2 2 2 2 2 2 2 2 2 2 2 2 2 2 3 3 3 4 4 4 5 4 3 4 5 5 5 4 4 5 5 6 5
3 4 5 5 5 4 3 4 2 3 5 7 6 4 4 5 5 4 5 6 7 6 5 5 5 5 4 4 2 1 2 2 2 1 1 1 2 2 2 1 1 1 2 1 0 0 0 1 1 3 3 4 3 2 2 2 2 2 2 2 2 2 2 2 2 3 3 3 4 4 5 5 5 5 5 5 5 5 5 5 5 5 5 5 5 5 5
3 5 5 4 4 3 3 3 4 5 5 6 4 4 2 3 5 4 3 4 5 4 4 3 3 2 2 2 1 1 2 1 1 1 2 0 1 0 0 0 0 1 2 2 3 3 3 3 3 4 3 3 3 2 3 3 2 2 2 2 2 2 2 2 2 2 3 3 3 3 3 4 4 4 4 4 4 4 4 4 4 4 4 5 5 5 5
5 5 3 3 3 5 3 3 4 4 3 2 3 3 2 4 4 4 3 3 5 3 3 3 3 2 1 1 1 1 1 1 1 1 1 1 0 0 0 0 2 2 1 1 1 1 2 3 3 3 3 3 2 2 2 2 2 3 2 3 2 2 2 2 2 2 3 3 3 4 4 5 4 4 4 4 4 4 4 5 5 4 4 4 4 4 4
1 1 2 2 2 2 1 1 2 2 2 2 2 2 1 1 2 2 2 2 2 2 2 1 1 1 1 1 1 1 1 1 1 1 0 0 0 0 1 0 1 1 2 2 1 2 2 2 3 4 3 2 3 3 3 3 3 3 3 3 3 3 3 3 4 5 4 5 5 5 5 5 4 5 5 4 4 4 5 5 5 6 8 7 6 6 6
2 2 2 2 2 2 4 4 2 2 2 2 2 1 0 1 2 2 1 0 1 1 1 2 1 1 1 0 1 1 1 0 0 1 1 0 1 2 2 2 2 2 2 2 2 2 2 2 2 2 3 3 3 3 3 3 2 3 3 3 3 3 2 4 3 3 3 4 3 4 4 4 4 4 4 4 5 5 5 5 6 5 5 5 5 5 5
4 3 2 2 2 2 2 3 3 3 2 1 1 1 1 2 2 2 1 3 1 1 1 1 1 1 1 0 0 1 0 0 0 0 1 1 1 2 2 3 3 2 2 2 2 2 3 2 3 4 4 3 2 3 4 4 4 4 3 3 3 3 3 3 3 3 3 3 4 5 5 5 5 5 5 5 5 5 5 5 5 5 4 4 4 4 5
Wind_Direction
241 247 246 202 219 218 215 210 210 200 202 196 206 221 228 209 216 242 217 188 220 212 196 203 202 196 195 197 196 182 172 156 156 163 167 178 182 181 185 190 190 192 190 188 183 177 173 168 173 175 175 174 173 175 176 175 176 175 165 165 169 171 173 179 185 184 182 183 182 172 161 159 158 152 145 142 134 128 125 127 127 137 141 148 169 200 201
245 244 241 219 234 242 241 223 213 200 196 204 208 216 216 217 231 237 229 204 221 210 192 194 195 198 203 189 126 113 134 158 165 171 176 181 184 186 191 193 195 197 195 183 178 174 169 176 175 178 176 177 178 176 177 176 175 171 162 172 173 179 183 189 187 183 180 168 170 161 160 164 161 149 149 147 141 135 136 142 146 151 155 165 183 199 207
247 242 239 236 231 234 244 242 231 218 210 209 206 214 221 221 236 244 241 257 248 232 180 177 163 133 79 81 143 164 157 157 168 175 184 185 189 194 196 195 196 194 192 187 176 176 177 179 179 179 177 176 175 177 176 177 177 172 168 178 183 185 191 191 187 176 169 171 172 169 165 162 156 151 153 151 147 140 147 151 158 161 170 180 187 195 202
254 245 225 234 237 239 248 252 244 234 218 209 205 214 216 207 224 230 226 244 237 139 119 76 78 130 156 169 172 157 156 174 170 182 191 190 192 193 195 192 189 186 188 188 181 180 178 176 179 179 177 176 174 183 180 181 176 174 179 183 186 191 192 187 181 173 171 166 175 173 164 170 154 153 147 152 150 149 152 157 170 170 192 190 187 188 197
240 251 197 221 173 239 257 249 238 231 214 209 210 219 217 217 217 221 219 231 226 151 147 154 149 166 188 180 158 174 171 178 186 192 193 192 192 196 187 183 185 186 188 192 191 184 180 182 187 188 179 175 185 184 182 183 170 182 185 184 188 190 187 183 178 179 179 174 177 177 172 160 155 144 152 156 155 157 164 167 168 182 198 191 188 191 198
247 200 153 113 190 224 228 242 291 216 215 201 201 216 218 217 206 219 222 235 112 149 159 174 187 180 196 189 202 189 178 173 188 203 202 200 191 184 177 176 179 186 185 187 189 186 186 187 186 181 177 181 182 180 181 180 182 181 178 181 184 187 185 189 187 182 182 179 185 184 167 161 156 161 166 176 163 157 153 158 177 188 195 195 189 194 200
230 125 127 177 218 229 236 350 282 271 216 205 211 225 223 219 221 233 247 210 171 177 182 182 183 192 196 184 172 182 178 173 177 189 196 195 184 174 165 170 179 179 179 179 183 186 188 183 176 173 182 183 185 184 185 181 175 171 178 181 190 194 196 192 188 187 186 185 189 182 171 160 167 177 175 172 161 166 162 172 177 186 191 191 196 194 197
47 148 177 224 231 246 311 303 307 270 252 196 198 232 229 218 210 211 224 226 167 152 158 105 94 140 128 107 59 171 155 183 182 175 194 189 166 167 174 173 175 173 177 179 182 184 172 169 176 178 180 176 171 168 163 166 165 173 179 188 196 194 195 194 195 192 188 192 192 187 168 171 180 182 180 183 164 166 158 171 176 182 193 184 187 188 195
211 191 207 232 353 306 209 127 202 165 177 177 191 217 233 218 201 197 211 219 148 128 95 100 89 89 101 152 219 191 204 200 190 189 192 163 170 168 163 164 169 168 166 169 163 145 152 161 160 167 161 160 160 154 161 169 171 177 181 191 198 197 197 197 196 192 188 191 194 189 186 185 192 193 175 181 170 162 154 173 175 183 184 186 186 182 195
201 215 228 247 247 246 246 168 185 87 351 221 193 202 258 161 176 176 186 210 156 139 119 99 106 113 120 227 228 186 190 174 185 108 92 98 123 126 116 100 104 122 133 128 133 141 147 156 157 156 158 158 159 156 162 164 166 176 184 197 196 197 203 202 196 192 192 195 197 197 191 197 199 184 145 143 162 159 167 174 183 181 176 177 189 191 191
162 209 223 220 217 241 90 207 92 52 338 105 88 123 244 55 176 182 177 195 159 161 148 148 140 132 207 230 222 171 172 176 175 170 159 134 126 125 138 150 146 146 148 142 139 140 145 154 160 153 149 150 156 159 164 165 172 181 196 200 199 203 206 200 192 192 194 196 199 198 199 205 198 193 187 180 140 146 166 170 174 158 172 179 186 196 198
202 203 215 223 237 260 198 213 105 182 336 109 103 161 265 179 202 188 179 189 146 153 154 151 164 168 211 229 200 141 161 166 168 169 153 143 138 129 118 108 126 130 128 121 134 148 161 161 152 147 145 154 161 164 172 166 178 195 203 204 203 201 195 199 200 196 196 196 201 199 204 204 195 191 157 139 153 163 165 167 170 171 170 189 181 201 185
213 215 235 314 278 197 298 123 139 135 332 108 159 205 151 191 149 123 145 137 155 153 155 168 174 213 195 123 115 125 119 121 119 103 123 133 141 138 137 127 118 125 147 155 159 169 164 146 142 145 148 155 169 175 168 175 197 205 203 192 190 196 195 196 195 196 195 193 197 203 201 195 177 170 157 167 150 161 162 176 165 171 164 182 177 205 205
212 214 226 231 345 189 153 327 82 223 111 191 196 160 338 141 164 154 153 139 153 158 170 181 203 165 118 137 108 126 137 134 132 125 115 107 89 77 93 122 139 136 144 154 147 138 145 133 141 151 160 169 178 172 176 196 209 202 182 187 189 190 190 192 189 187 190 193 193 192 178 159 166 175 157 143 150 155 169 166 163 156 153 184 206 211 214
61 171 233 183 233 137 121 125 67 307 156 275 116 124 36 13 123 138 143 155 171 169 182 193 161 115 128 138 147 121 131 129 140 143 143 144 147 141 134 145 180 154 152 166 177 166 141 130 142 157 167 178 184 182 191 211 205 189 192 185 185 188 186 184 187 187 188 184 182 170 172 175 169 172 147 147 149 151 164 149 154 165 177 195 206 216 214
192 185 200 203 2 133 191 145 164 175 204 145 147 129 128 70 141 160 157 174 182 188 182 162 131 130 122 109 112 107 100 112 120 128 125 127 132 138 152 158 166 175 164 167 162 162 145 143 159 168 175 183 191 192 212 214 195 188 181 179 170 176 185 190 185 187 181 176 169 167 167 163 166 165 167 157 147 162 164 169 173 181 199 186 199 210 214
197 215 94 355 308 159 164 43 316 107 123 120 168 112 122 139 194 194 177 199 172 193 157 143 135 138 160 147 150 143 155 133 152 152 162 159 158 155 160 156 156 173 182 181 181 173 160 158 157 177 187 186 194 205 222 198 187 179 174 162 170 185 194 192 189 176 160 167 167 164 163 157 157 163 155 162 167 175 158 182 189 188 194 184 190 203 209
88 44 145 82 27 160 108 20 343 117 118 127 103 122 121 210 149 176 185 209 168 151 165 139 166 162 157 139 150 142 138 144 128 104 104 118 113 112 124 137 157 179 181 169 173 198 187 168 176 189 200 198 201 218 211 193 182 168 163 167 185 199 195 189 179 157 162 150 142 141 163 171 174 169 154 163 175 167 172 186 186 187 192 186 192 197 208
123 244 112 89 80 135 69 56 22 31 120 156 207 143 175 186 173 188 221 126 128 154 160 170 167 161 152 153 151 149 137 149 156 159 176 176 174 167 183 185 150 157 171 194 214 212 224 202 191 200 203 217 225 234 206 178 161 160 168 184 195 196 193 175 157 160 163 165 163 157 171 169 178 176 169 176 182 174 177 184 184 186 187 189 190 195 199
218 36 71 61 16 339 57 69 154 152 178 257 275 15 41 25 47 82 79 99 113 139 164 180 162 148 159 159 165 145 156 163 168 177 187 189 178 204 187 150 158 157 175 200 212 213 226 224 201 204 207 220 227 231 176 142 152 159 179 192 197 201 191 168 163 166 176 174 168 167 183 179 179 183 181 184 187 193 184 182 173 181 180 187 193 192 195
123 45 155 276 129 125 222 271 302 312 195 200 180 110 62 42 109 113 84 28 136 167 183 156 146 139 162 175 169 165 164 177 190 202 203 206 211 194 186 183 171 191 196 204 214 213 231 230 211 209 218 225 224 218 198 140 156 177 199 203 209 194 167 147 164 162 185 172 184 176 177 190 211 195 182 183 194 205 197 187 191 184 181 191 189 191 182
212 206 171 173 142 187 175 201 218 237 231 245 181 118 123 170 165 161 162 120 58 60 65 139 154 167 165 167 166 174 181 190 201 207 211 214 217 222 212 188 192 206 210 205 214 225 242 241 223 226 227 231 222 203 166 149 160 195 205 177 186 196 167 171 164 159 191 184 183 178 164 186 187 212 219 206 213 193 188 208 223 229 207 191 173 163 185
229 152 146 170 49 65 143 179 200 211 210 196 200 203 200 186 189 180 161 142 112 179 209 146 166 181 176 178 173 184 189 199 201 206 210 215 218 223 203 181 204 207 215 208 223 246 247 235 237 242 246 216 177 174 168 169 177 192 182 193 208 202 176 197 184 168 176 180 171 185 174 171 186 200 215 225 222 225 225 210 218 228 228 226 216 206 190
24 109 157 166 143 133 211 178 182 199 195 185 211 213 189 179 171 175 192 179 155 165 166 182 195 190 193 193 169 198 214 199 182 205 217 222 229 222 188 202 219 213 215 211 218 233 241 230 235 242 241 222 164 169 171 178 184 194 196 201 209 205 176 158 161 166 178 168 149 175 183 168 179 188 200 196 210 219 221 224 224 226 229 228 228 228 228
179 141 153 153 123 133 67 148 144 166 182 188 201 212 185 173 178 166 175 195 207 178 172 186 197 194 188 196 185 198 211 217 209 218 221 206 196 183 188 186 210 218 226 228 238 242 206 223 230 229 231 212 113 139 161 169 180 197 207 213 228 220 150 162 167 175 180 170 171 178 180 171 180 186 198 205 201 184 203 218 225 230 232 233 235 238 239
116 107 101 89 73 85 130 98 77 143 161 184 206 211 165 194 176 146 195 200 199 182 182 167 177 184 191 214 218 216 224 231 186 142 161 166 184 189 221 227 233 231 255 318 114 173 211 179 187 163 159 67 60 84 126 159 177 199 211 221 233 248 207 148 154 164 176 181 176 190 190 188 190 185 203 207 209 186 160 166 218 240 243 241 241 243 247
86 123 109 85 81 236 244 177 171 153 152 177 191 130 81 98 138 149 157 166 236 89 199 216 172 140 167 211 219 220 214 182 128 168 177 199 216 222 223 132 89 271 67 336 351 43 47 55 70 80 80 47 13 63 127 152 166 190 203 206 212 240 120 145 162 162 170 182 175 181 176 181 179 183 195 195 184 189 210 202 209 206 206 228 235 234 229
136 166 153 158 195 196 201 227 61 64 100 132 148 116 104 104 112 122 147 190 245 251 244 216 208 206 208 197 185 212 147 188 211 197 196 216 202 84 78 77 71 66 66 61 55 49 56 68 76 87 76 33 23 22 66 128 145 161 151 142 157 144 105 107 114 133 147 154 163 169 164 166 149 174 157 165 177 200 202 234 258 276 280 226 208 240 239
172 181 222 66 65 58 63 79 94 115 100 72 73 89 111 113 196 200 236 205 191 164 208 209 198 214 214 184 162 203 202 196 207 221 213 112 75 66 64 67 68 65 68 70 60 40 48 50 57 72 60 32 27 29 73 97 119 129 127 132 175 133 127 124 110 107 89 89 85 117 134 115 133 144 144 171 185 195 208 218 228 250 249 252 232 254 246
143 166 183 110 91 86 97 118 157 172 163 132 135 145 158 168 218 249 245 247 215 228 245 149 152 208 199 221 214 196 212 223 204 108 87 76 66 53 53 75 85 68 77 83 55 39 52 58 60 65 54 37 46 51 66 87 80 69 68 58 46 63 88 95 102 93 105 109 106 116 110 130 151 152 176 183 193 201 217 227 231 229 239 241 237 248 235
174 135 79 55 68 86 175 201 113 130 132 135 153 138 115 185 227 249 248 247 247 249 255 219 215 179 176 212 219 203 138 103 87 85 78 76 70 57 53 30 190 242 98 79 76 56 71 75 65 61 46 53 55 53 76 85 97 97 102 101 85 78 91 111 117 119 119 122 131 143 153 151 171 172 189 193 201 212 222 231 231 236 237 237 235 237 234
159 126 48 31 78 291 262 218 148 161 167 137 139 202 209 191 212 226 236 237 237 234 241 226 213 227 226 175 142 137 117 88 84 81 72 70 59 41 31 38 61 75 77 78 69 70 79 79 67 51 49 58 62 41 59 95 110 114 105 100 108 115 128 129 122 126 110 103 116 122 162 146 197 182 201 213 224 228 230 228 235 234 234 234 237 235 234
135 126 287 254 244 271 256 245 195 211 193 186 207 214 220 221 230 239 239 247 267 271 214 233 238 224 152 128 128 114 97 87 71 75 66 63 49 39 33 57 59 70 78 72 73 69 63 68 72 70 65 70 75 61 47 51 61 87 87 95 87 89 96 121 113 116 117 127 144 171 176 187 210 221 225 222 228 235 240 239 239 240 240 240 246 249 240
176 192 201 202 186 202 221 238 217 215 213 205 212 218 232 235 224 237 252 275 302 296 282 296 55 73 94 117 118 118 125 119 139 136 100 90 76 59 50 69 76 84 80 70 64 68 68 72 77 78 76 75 71 68 57 46 70 75 88 89 101 108 113 125 134 155 170 183 193 184 201 222 235 237 243 230 231 238 246 249 249 253 257 260 257 251 256
195 163 52 67 185 216 208 198 197 196 200 203 214 213 221 233 237 246 348 331 281 356 21 58 70 75 88 99 112 134 163 173 101 115 123 119 119 119 111 106 100 87 70 56 58 63 65 65 71 83 80 73 72 73 69 63 65 87 80 88 88 97 109 117 140 181 197 207 217 205 218 222 239 245 249 259 260 252 248 247 248 248 251 253 252 247 245
15 74 79 59 43 43 64 62 48 51 127 172 172 157 132 34 35 46 51 48 32 17 49 72 93 96 82 100 120 139 141 95 92 100 112 126 135 136 127 119 114 99 91 75 57 44 54 67 57 70 81 86 78 63 58 61 60 64 82 86 104 102 94 93 97 64 86 251 264 254 242 274 307 292 270 260 254 256 261 263 259 256 255 256 258 255 253
14 42 77 75 56 58 67 57 27 15 47 59 44 42 57 43 53 44 54 51 41 48 54 99 105 101 99 58 66 63 63 82 106 122 128 128 130 126 125 116 107 116 114 90 70 68 63 65 47 44 78 97 83 77 68 66 86 101 105 102 105 105 128 128 145 143 197 173 195 250 277 266 239 246 245 244 252 256 254 255 258 258 260 261 264 267 267
30 41 51 57 54 69 64 49 23 56 92 81 51 50 55 69 36 40 47 43 29 31 47 74 87 95 104 92 59 51 41 61 99 110 117 118 124 122 125 124 127 152 107 88 117 104 69 64 42 27 51 73 84 88 92 87 91 106 112 105 113 114 114 123 126 162 157 179 178 214 245 247 252 253 253 247 246 246 251 256 257 257 258 256 253 252 255
57 54 59 62 65 66 72 53 41 35 33 86 97 68 52 56 65 55 53 40 19 36 78 86 112 93 78 86 89 54 39 62 90 106 109 102 95 84 52 33 26 24 56 74 89 56 68 61 51 74 83 80 95 103 106 122 130 76 88 105 107 120 124 123 177 86 232 248 230 239 230 238 242 246 252 252 256 257 255 252 256 261 260 258 257 254 251
58 55 45 54 57 68 69 65 50 53 43 44 65 73 65 86 76 82 86 68 30 28 99 124 121 109 107 94 105 102 42 32 74 98 105 106 105 106 118 91 58 29 35 58 53 78 67 54 49 75 89 100 107 113 108 114 193 121 119 101 109 84 80 64 18 265 266 238 247 252 250 252 249 254 256 262 261 256 256 257 255 250 253 256 257 257 254
69 91 91 92 92 92 84 98 81 64 43 33 38 26 24 64 86 71 61 68 41 31 42 46 95 99 116 119 93 94 93 46 44 61 81 128 124 147 115 117 95 85 44 48 65 78 75 54 19 86 84 101 92 67 90 109 55 70 57 82 64 132 190 200 233 247 247 259 252 250 253 257 255 246 247 246 247 248 249 246 249 248 250 251 255 253 252
23 75 98 95 94 85 78 84 101 80 50 40 27 28 31 39 67 74 75 72 61 49 61 50 60 97 92 89 95 91 75 48 56 46 29 32 18 85 112 101 107 86 56 91 76 93 109 101 59 72 64 70 89 87 61 81 89 65 188 167 178 216 245 252 245 246 254 252 257 257 260 255 251 257 257 256 257 256 254 253 253 250 251 251 251 250 251
2 22 60 74 74 68 72 69 64 85 81 49 33 20 24 41 58 66 70 69 73 80 69 72 74 71 86 101 102 95 81 48 70 87 72 66 133 305 42 107 105 96 46 59 55 77 69 62 48 56 42 29 48 86 205 245 211 195 218 219 220 240 244 240 246 251 244 243 246 248 244 246 252 253 255 258 259 254 252 248 249 254 258 254 251 249 245
4 16 34 55 59 71 83 82 82 77 76 57 38 41 27 25 42 59 71 83 80 75 80 76 81 86 85 97 100 97 105 111 119 119 101 98 80 54 31 54 90 93 55 10 48 56 62 64 68 60 68 241 247 244 261 246 241 237 227 219 217 225 233 242 244 238 245 246 252 254 246 250 250 250 248 253 254 257 253 252 253 256 258 255 256 260 263
21 29 41 60 78 97 81 75 76 77 91 99 72 51 33 26 45 53 70 80 84 83 83 85 83 98 114 73 56 56 63 53 45 333 141 136 122 142 122 98 90 105 57 7 323 23 75 119 64 258 265 273 252 235 248 250 243 247 250 240 215 219 231 243 247 253 241 244 251 258 262 261 256 254 251 249 248 255 258 256 256 251 250 255 253 251 254
21 18 45 66 61 60 67 84 94 106 115 106 84 60 43 30 54 56 50 69 82 74 65 64 67 52 60 75 82 73 86 77 67 28 16 359 32 96 102 110 64 60 351 309 270 290 251 119 264 268 284 288 278 256 245 248 249 252 247 241 243 247 241 243 243 245 252 250 253 252 252 250 250 248 249 247 248 251 256 258 262 259 256 256 259 259 263
38 58 48 61 74 73 88 95 102 103 97 86 72 73 44 17 38 66 53 50 65 60 59 53 49 33 23 23 25 83 106 94 73 74 53 60 70 54 91 73 258 277 274 261 319 292 337 347 324 317 298 286 270 266 265 260 250 250 249 243 243 246 249 248 249 254 254 252 249 250 252 255 261 263 261 256 254 253 256 255 253 254 253 252 253 256 256
47 61 57 65 74 60 58 59 67 70 61 69 85 92 84 66 74 70 71 76 77 75 69 62 63 50 28 22 4 22 0 349 111 103 112 94 80 109 223 203 6 324 290 261 246 259 263 282 286 281 284 295 279 252 243 245 248 246 242 238 237 240 247 254 251 251 250 252 251 249 251 250 248 249 249 249 253 254 253 253 257 258 258 257 259 260 262
24 39 54 57 55 60 75 90 90 85 84 81 86 94 110 116 99 92 88 92 100 95 85 80 77 52 77 75 354 11 53 347 354 88 98 108 322 12 21 46 265 272 291 289 306 298 239 243 267 280 289 280 269 260 252 251 245 246 246 249 253 254 251 250 253 252 257 258 256 256 257 258 257 257 257 257 257 257 254 253 255 254 255 261 266 269 267
27 53 66 60 54 42 28 88 83 96 118 121 109 120 193 213 96 84 82 74 78 97 99 91 78 89 77 65 47 59 23 5 15 52 64 120 248 256 299 290 283 275 266 278 277 271 230 221 267 275 281 268 258 256 255 256 250 244 247 253 256 256 250 257 259 262 261 262 262 261 261 259 258 257 258 264 264 264 265 265 265 265 269 269 268 266 265
39 46 39 45 46 46 6 21 51 84 107 91 91 110 89 77 89 90 80 80 145 129 121 115 111 102 72 90 110 93 79 161 120 329 322 313 297 272 254 284 291 266 269 270 280 283 295 287 282 277 267 265 263 259 256 254 259 264 261 261 256 263 266 262 259 256 250 252 261 265 263 267 265 265 264 262 261 261 261 262 263 263 261 258 257 255 256
45 52 46 55 70 61 56 48 39 50 53 65 61 62 72 96 108 104 82 15 17 85 99 133 139 117 85 59 64 34 64 2 294 283 274 272 283 293 265 246 254 252 243 255 271 279 272 272 273 270 267 272 272 273 272 272 263 263 263 260 258 257 255 259 262 269 271 272 265 264 264 262 263 265 262 261 260 260 259 255 257 257 258 259 259 259 263